This demonstration page uses our WeatherBlox Daily Observations layout. Learn more.

38.88101, -77.10428

Hourly Observations for January 5, 2020

Temp ( °F °C ) Dew Point ( °F °C ) Humidity (%) Winds ( mph kmh ) Pressure ( in mb ) Visibility ( mi km ) Precip ( " mm )
12:52 am 00:52 Cloudy 45 7.2 32 0 61 61 NNW 15 24 29.76 1008 10 16.0934 0 0
1:52 am 01:52 Cloudy 44 6.7 32 0 63 63 NW 9 15 29.8 1009 10 16.0934 0 0
2:52 am 02:52 Cloudy 44 6.7 30 -1.1 58 58 NW 17 28 29.85 1011 10 16.0934 0 0
3:52 am 03:52 Cloudy 43 6.1 30 -1.1 60 60 WNW 14 22 29.88 1012 10 16.0934 0 0
4:52 am 04:52 Cloudy 42 5.6 25 -3.9 51 51 NW 22 35 29.91 1013 10 16.0934 0 0
5:52 am 05:52 Cloudy 41 5 24 -4.4 51 51 NW 13 20 29.96 1015 10 16.0934 0 0
6:52 am 06:52 Mostly Cloudy 39 3.9 23 -5 53 53 NW 18 30 30 1016 10 16.0934 0 0
7:52 am 07:52 Mostly Cloudy 39 3.9 22 -5.6 50 50 NW 17 28 30.02 1017 10 16.0934 0 0
8:52 am 08:52 Mostly Cloudy 40 4.4 25 -3.9 55 55 NW 10 17 30.05 1018 10 16.0934 0 0
9:52 am 09:52 Mostly Cloudy 42 5.6 22 -5.6 45 45 NW 18 30 30.08 1019 10 16.0934 0 0
10:52 am 10:52 Mostly Cloudy 42 5.6 23 -5 47 47 WNW 20 31 30.09 1019 10 16.0934 0 0
11:52 am 11:52 Mostly Cloudy 42 5.6 23 -5 47 47 WNW 16 26 30.08 1019 10 16.0934 0 0
12:52 pm 12:52 Cloudy 41 5 24 -4.4 51 51 NW 20 31 30.07 1018 10 16.0934 0 0
1:52 pm 13:52 Cloudy 41 5 23 -5 49 49 NW 13 20 30.09 1019 10 16.0934 0 0
2:52 pm 14:52 Mostly Cloudy 43 6.1 24 -4.4 47 47 W 14 22 30.08 1019 10 16.0934 0 0
3:52 pm 15:52 Partly Cloudy 42 5.6 23 -5 47 47 NW 15 24 30.09 1019 10 16.0934 0 0
4:52 pm 16:52 Mostly Sunny 40 4.4 24 -4.4 53 53 NW 10 17 30.09 1019 10 16.0934 0 0
5:52 pm 17:52 Mostly Clear 39 3.9 24 -4.4 55 55 NNW 8 13 30.08 1019 10 16.0934 0 0
6:52 pm 18:52 Mostly Clear 38 3.3 24 -4.4 57 57 N 8 13 30.08 1019 10 16.0934 0 0
7:52 pm 19:52 Mostly Clear 38 3.3 24 -4.4 57 57 NNW 3 6 30.09 1019 10 16.0934 0 0
8:52 pm 20:52 Mostly Cloudy 37 2.8 26 -3.3 65 65 S 6 9 30.06 1018 10 16.0934 0 0
9:52 pm 21:52 Mostly Cloudy 36 2.2 27 -2.8 70 70 SSE 6 9 30.03 1017 10 16.0934 0 0
10:52 pm 22:52 Cloudy 36 2.2 27 -2.8 70 70 S 5 7 30.04 1017 10 16.0934 0 0
11:52 pm 23:52 Mostly Cloudy 37 2.8 28 -2.2 70 70 Calm 30.03 1017 10 16.0934 0 0

Powered by AerisWeather